Location: Asheville, NC
(35.6000°N, 82.5500°W)
Time: 12:18:26
(UTC-04:00)

STRAND 1 - Pass Details

Date: 05 January 2018
Orbit: 769 x 780 km, 98.5° (Epoch: 24 June)

Event Time Altitude Azimuth Distance (km) Brightness Sun altitude
Rises 05:40:18 0° 109° (ESE) 3,232 ? -23.8°
Drops below altitude 10° 05:45:31 10° 63° (ENE) 2,315 ? -22.7°
Maximum altitude 05:45:40 10° 61° (ENE) 2,314 ? -22.7°
Sets 05:51:03 0° 14° (NNE) 3,244 ? -21.6°
